This demonstration page uses our WeatherBlox Daily Observations layout. Learn more.

Left ArrowRight Arrow

39.08367, -84.50855

Hourly Observations for September 15, 2015

Temp ( °F °C ) Dew Point ( °F °C ) Humidity (%) Winds ( mph kmh ) Pressure ( in mb ) Visibility ( mi km ) Precip ( " mm )
12:53 am 00:53 Clear 53 11.7 53 11.7 100 100 Calm 30.26 1025 8 13 0.00 0.00
1:48 am 01:48 Clear with Mist and Fog 52 11 52 11 100 100 Calm 30.27 1025 2 3 0.00 0.00
1:53 am 01:53 Clear with Mist and Fog 51 10.6 51 10.6 100 100 Calm 30.27 1025 1 2 0.00 0.00
2:08 am 02:08 Clear with Mist and Fog 52 11 52 11 100 100 Calm 30.27 1025 2 3 0.00 0.00
2:22 am 02:22 Clear 52 11 52 11 100 100 Calm 30.27 1025 7 11 0.00 0.00
2:53 am 02:53 Clear with Mist and Fog 52 11.1 52 11.1 100 100 Calm 30.28 1026 6 10 0.00 0.00
3:07 am 03:07 Clear with Mist and Fog 52 11.1 51 10.6 97 97 Calm 30.30 1026 2 3 0.00 0.00
3:15 am 03:15 Clear with Mist and Fog 52 11.1 52 11.1 100 100 Calm 30.30 1026 3 5 0.00 0.00
3:41 am 03:41 Clear with Mist and Fog 50 10 50 10 100 100 Calm 30.30 1026 1 2 0.00 0.00
3:47 am 03:47 Clear with Mist and Fog 50 10 50 10 100 100 Calm 30.30 1026 4 6 0.00 0.00
3:53 am 03:53 Clear with Mist and Fog 50 10 50 10 100 100 Calm 30.29 1026 5 8 0.00 0.00
3:57 am 03:57 Clear with Mist and Fog 50 10 50 10 100 100 Calm 30.30 1026 2 3 0.00 0.00
4:05 am 04:05 Clear with Mist and Fog 50 10 50 10 100 100 Calm 30.30 1026 4 6 0.00 0.00
4:53 am 04:53 Clear with Mist and Fog 50 10 50 10 100 100 Calm 30.30 1026 3 5 0.00 0.00
5:28 am 05:28 Partly Cloudy with Mist and Fog 50 10 50 10 100 100 Calm 30.30 1026 6 10 0.00 0.00
5:48 am 05:48 Mostly Cloudy with Mist and Fog 50 10 50 10 100 100 Calm 30.33 1027 3 5 0.00 0.00
5:53 am 05:53 Mostly Cloudy with Mist and Fog 50 10 50 10 100 100 Calm 30.31 1027 2 3 0.00 0.00
6:03 am 06:03 Cloudy with Mist and Fog 50 10 50 10 100 100 Calm 30.33 1027 4 6 0.00 0.00
6:06 am 06:06 Cloudy with Mist and Fog 48 9 48 9 100 100 Calm 30.33 1027 2 2 0.00 0.00
6:15 am 06:15 Mostly Cloudy with Fog 49 9.4 49 9.4 100 100 Calm 30.33 1027 1 1 0.00 0.00
6:23 am 06:23 Mostly Cloudy with Mist and Fog 50 10 50 10 100 100 Calm 30.33 1027 3 4 0.00 0.00
6:30 am 06:30 Partly Cloudy 50 10 50 10 100 100 Calm 30.33 1027 7 11 0.00 0.00
6:53 am 06:53 Mostly Clear 49 9.4 49 9.4 100 100 Calm 30.33 1027 10 16 0.00 0.00
7:53 am 07:53 Mostly Sunny 50 10 50 10 100 100 Calm 30.35 1028 10 16 0.00 0.00
8:53 am 08:53 Sunny 56 13.3 54 12.2 93 93 Calm 30.36 1028 10 16 0.00 0.00
9:53 am 09:53 Sunny 61 16.1 57 13.9 87 87 Calm 30.37 1028 10 16 0.00 0.00
10:53 am 10:53 Sunny 67 19.4 57 13.9 71 71 SSW 3 6 30.37 1029 10 16 0.00 0.00
11:53 am 11:53 Sunny 72 22.2 58 14.4 61 61 Calm 30.36 1028 10 16 0.00 0.00
12:53 pm 12:53 Sunny 74 23.3 56 13.3 54 54 S 3 6 30.34 1028 10 16 0.00 0.00
1:53 pm 13:53 Sunny 76 24.4 57 13.9 52 52 VRB 3 6 30.33 1027 10 16 0.00 0.00
2:53 pm 14:53 Sunny 77 25 55 12.8 47 47 VRB 3 6 30.31 1026 10 16 0.00 0.00
3:53 pm 15:53 Sunny 79 26.1 56 13.3 45 45 VRB 3 6 30.29 1026 10 16 0.00 0.00
4:53 pm 16:53 Sunny 79 26.1 56 13.3 45 45 S 8 13 30.28 1025 10 16 0.00 0.00
5:53 pm 17:53 Sunny 78 25.6 55 12.8 45 45 SE 6 9 30.27 1025 10 16 0.00 0.00
6:53 pm 18:53 Sunny 76 24.4 56 13.3 50 50 SSE 5 7 30.27 1025 10 16 0.00 0.00
7:53 pm 19:53 Clear 68 20 61 16.1 78 78 Calm 30.27 1025 10 16 0.00 0.00
8:08 pm 20:08 Mostly Clear 66 19 59 15 78 78 Calm 30.24 1024 10 16 0.00 0.00
8:53 pm 20:53 Clear 62 16.7 58 14.4 86 86 Calm 30.28 1026 10 16 0.00 0.03
9:53 pm 21:53 Clear 60 15.6 58 14.4 93 93 Calm 30.29 1026 10 16 0.00 0.00
10:53 pm 22:53 Clear 58 14.4 57 13.9 97 97 Calm 30.30 1026 10 16 0.00 0.00
11:53 pm 23:53 Clear 57 13.9 57 13.9 100 100 Calm 30.30 1026 10 16 0.00 0.00

Powered by AerisWeather